DateTimeUTC,F1_A11,F1_S11,BsB_S11,BsG_S11,BsR_S11,BbsB_S11,BbsG_S11,BbsR_S11,BaB_A11,BaG_A11,BaR_A11,Tu_S11,T_S11,Uu_S11,U_S11,P_S11,T1_A11
2021-06-16T13:00:00Z,00000200,20000000,,,,,,,0000.31,-000.07,0000.21,18.2,24.4,03.2,02.2,0669.1,31.0
2021-06-16T13:01:00Z,00000200,20000000,,,,,,,-000.12,0000.03,-000.14,18.2,24.4,03.2,02.2,0669.1,31.0
2021-06-16T13:02:00Z,00000200,20000000,,,,,,,0000.16,0000.46,0000.15,18.2,24.5,03.2,02.2,0669.1,31.0
2021-06-16T13:03:00Z,00000200,60000000,,,,,,,-000.03,0000.07,0000.08,18.2,24.5,03.2,02.2,0669.1,31.0
2021-06-16T13:04:00Z,00000200,40000000,0001.01,0000.70,0000.24,-000.04,0000.29,0000.08,0000.35,-000.07,0000.09,18.3,24.4,03.3,02.3,0670.0,31.0
2021-06-16T13:05:00Z,00000200,00000000,0001.25,0000.38,0000.46,0000.05,0000.27,-000.09,0000.18,0000.27,0000.19,18.3,24.4,03.4,02.4,0670.1,31.0
2021-06-16T13:06:00Z,00000200,00000000,0000.85,0000.74,0000.40,0000.21,0000.04,0000.16,0000.15,0000.35,0000.48,18.4,24.4,03.5,02.4,0670.1,31.0
2021-06-16T13:07:00Z,00000200,00000000,0000.95,0000.42,0000.37,-000.26,0000.29,0000.09,0000.23,0000.18,-000.49,18.4,24.4,03.4,02.3,0670.0,31.0
2021-06-16T13:08:00Z,00000200,00000000,0000.86,0000.45,0000.31,0000.26,-000.08,0000.14,0000.19,-000.01,0000.56,18.4,24.4,03.5,02.4,0670.0,31.0
2021-06-16T13:09:00Z,00000200,00000000,0000.92,0000.32,0000.18,0000.02,0000.23,0000.22,0000.13,0000.33,-000.17,18.4,24.4,03.3,02.3,0670.0,31.0
2021-06-16T13:10:00Z,00000200,00000000,0000.72,0000.60,0000.32,0000.62,-000.14,0000.10,0000.10,0000.01,0000.23,18.4,24.4,03.4,02.4,0670.1,31.0
2021-06-16T13:11:00Z,00000200,00000000,0000.77,0000.83,0000.31,-000.27,-000.05,-000.12,0000.68,0000.55,0000.54,18.4,24.4,03.4,02.3,0670.1,31.0
2021-06-16T13:12:00Z,00000200,00000000,0001.31,0000.53,0000.24,0000.22,0000.12,-000.24,0000.16,-000.03,-000.13,18.4,24.4,03.5,02.4,0670.1,31.0
2021-06-16T13:13:00Z,00000200,00000000,0001.08,0000.53,0000.53,0000.29,-000.02,0000.15,0000.04,0000.35,0000.24,18.4,24.4,03.4,02.3,0670.1,31.0
2021-06-16T13:14:00Z,00000200,00000000,0001.01,0000.41,0000.32,0000.22,0000.26,-000.23,0000.14,0000.22,-000.14,18.4,24.4,03.4,02.3,0670.1,31.0
2021-06-16T13:15:00Z,00000200,00000000,0001.29,0000.54,0000.50,-000.39,-000.07,0000.14,0000.27,0000.21,0000.34,18.4,24.4,03.4,02.4,0670.1,31.0
2021-06-16T13:16:00Z,00000200,00000000,0000.59,0000.99,0000.37,0000.35,0000.08,0000.28,-000.06,0000.15,0000.00,18.4,24.4,03.5,02.4,0670.1,31.0
2021-06-16T13:17:00Z,00000200,00000000,0000.52,0000.75,0000.58,0000.60,0000.08,0000.11,0000.75,0000.02,0000.25,18.4,24.4,03.4,02.4,0670.1,31.0
2021-06-16T13:18:00Z,00000200,00000000,0001.00,0000.48,0000.40,-000.45,0000.03,-000.09,0000.12,0000.12,0000.09,18.4,24.4,03.5,02.4,0670.1,31.0
2021-06-16T13:19:00Z,00000200,00000000,0001.21,0000.68,0000.60,0000.29,0000.01,-000.23,-000.02,-000.24,0000.36,18.4,24.4,03.4,02.4,0670.1,31.0
2021-06-16T13:20:00Z,00000200,00000000,0001.16,0000.72,0000.65,0000.64,0000.20,0000.24,0000.29,0000.96,-000.04,18.4,24.4,03.4,02.4,0670.1,31.0
2021-06-16T13:21:00Z,00000200,00000000,0001.30,0000.89,0000.66,0000.00,0000.09,0000.39,0000.54,0000.03,0000.36,18.4,24.4,03.5,02.4,0670.1,31.0
2021-06-16T13:22:00Z,00000200,00000000,0000.75,0000.98,0000.38,0000.41,0000.15,-000.18,0000.13,0000.31,0000.20,18.4,24.4,03.5,02.4,0670.1,31.0
2021-06-16T13:23:00Z,00000200,00000000,0000.98,0001.18,0000.15,0000.67,0000.05,0000.05,0000.21,0000.26,-000.02,18.4,24.4,03.5,02.4,0670.1,31.0
2021-06-16T13:24:00Z,00000200,00000000,0000.61,0000.85,0000.54,0000.29,0000.38,0000.21,0000.25,0000.54,0000.13,18.4,24.4,03.4,02.3,0670.1,31.0
2021-06-16T13:25:00Z,00000200,00010000,0000.70,0000.49,0000.08,0000.46,-000.13,-000.08,0000.36,-000.56,0000.29,18.4,24.4,03.4,02.4,0670.1,31.0
2021-06-16T13:26:00Z,00000200,00000000,0001.36,0000.61,0000.03,-000.20,-000.04,-000.17,0000.06,0000.44,0000.23,18.4,24.4,03.3,02.3,0670.1,31.0
2021-06-16T13:27:00Z,00000200,00000000,0000.82,0000.68,0000.24,0000.43,0000.02,0000.33,0000.12,0000.27,0000.31,18.4,24.4,03.4,02.4,0670.1,31.0
2021-06-16T13:28:00Z,00000200,00000000,0001.12,0000.51,0000.26,-000.53,0000.13,-000.17,0000.93,0000.65,0000.16,18.4,24.4,03.6,02.5,0670.1,31.0
2021-06-16T13:29:00Z,00000200,00000000,0001.06,0000.82,0000.30,0000.14,0000.20,0000.19,0000.12,0000.38,0000.33,18.4,24.4,03.7,02.5,0670.1,31.0
2021-06-16T13:30:00Z,00000200,00000000,0000.79,0000.62,0000.27,0000.30,0000.14,0000.03,0000.87,0000.45,0000.27,18.4,24.4,03.8,02.6,0670.1,31.0
2021-06-16T13:31:00Z,00000200,00000000,0001.51,0000.85,0000.38,0000.50,0000.13,0000.03,0000.92,0001.08,0000.47,18.4,24.4,04.1,02.8,0670.1,31.0
2021-06-16T13:32:00Z,00000200,00000000,0001.02,0000.82,0000.22,0000.20,0000.21,-000.17,0000.48,0000.36,0000.23,18.4,24.5,04.6,03.2,0670.1,31.0
2021-06-16T13:33:00Z,00000200,00000000,0000.59,0000.75,0000.33,0000.17,-000.02,0000.06,-000.09,0000.06,0000.14,18.4,24.4,04.5,03.1,0670.1,31.0
2021-06-16T13:34:00Z,00000200,00000000,0000.75,0000.63,0000.14,0000.18,0000.13,0000.03,0000.23,0000.25,0000.49,18.4,24.4,04.5,03.1,0670.1,31.0
2021-06-16T13:35:00Z,00000200,00000000,-000.10,0000.73,0000.34,-000.07,0000.29,-000.10,0000.44,0000.39,-000.35,18.4,24.5,04.6,03.2,0670.1,31.0
2021-06-16T13:36:00Z,00000200,00000000,0001.02,0000.58,0000.33,0000.28,0000.10,0000.17,0000.24,-000.09,0000.34,18.4,24.5,04.5,03.1,0670.1,31.0
2021-06-16T13:37:00Z,00000200,00000000,0000.51,0000.70,0000.23,0000.14,0000.32,0000.09,-000.29,-000.30,-000.07,18.4,24.5,04.3,03.0,0670.0,31.0
2021-06-16T13:38:00Z,00000200,00000000,0000.95,0000.72,0000.17,0000.38,0000.03,-000.30,0000.12,0000.12,-000.08,18.5,24.5,04.1,02.9,0670.1,31.0
2021-06-16T13:39:00Z,00000200,00000000,0000.93,0000.58,0000.48,0000.19,0000.09,0000.24,-000.10,-000.17,0000.04,18.5,24.5,03.9,02.7,0670.0,31.0
2021-06-16T13:40:00Z,00000200,00000000,0000.42,0000.66,0000.27,-000.65,-000.07,-000.03,0000.05,-000.10,-000.14,18.5,24.5,03.7,02.5,0670.0,31.0
2021-06-16T13:41:00Z,00000200,00000000,0001.19,0000.73,0000.43,0000.47,0000.34,0000.17,-000.09,-000.20,0000.37,18.5,24.5,03.7,02.6,0670.0,31.0
2021-06-16T13:42:00Z,00000200,00000000,0001.05,0000.62,0000.71,-000.30,0000.31,0000.10,0000.14,0000.44,0000.01,18.5,24.5,03.5,02.4,0670.0,31.0
2021-06-16T13:43:00Z,00000200,00000000,0000.56,0000.94,0000.27,0000.56,-000.15,0000.07,0000.20,0000.34,0000.23,18.5,24.5,03.5,02.4,0670.0,31.0
2021-06-16T13:44:00Z,00000200,00000000,0000.44,0000.67,0000.53,0000.24,0000.15,0000.18,-000.11,-000.01,0000.28,18.5,24.5,03.4,02.4,0670.0,31.0
2021-06-16T13:45:00Z,00000200,00000000,0000.90,0000.71,0000.39,0000.21,0000.26,-000.17,0000.50,0000.19,0000.05,18.5,24.5,03.5,02.4,0670.0,31.0
2021-06-16T13:46:00Z,00000200,00000000,0001.42,0000.63,0000.30,-000.06,-000.00,-000.06,0000.57,0000.28,0000.31,18.5,24.5,03.5,02.5,0670.0,31.0
2021-06-16T13:47:00Z,00000200,00000000,0001.14,0000.68,0000.43,0000.14,0000.13,-000.12,-000.10,0000.42,0000.10,18.5,24.5,03.5,02.4,0670.0,31.0
2021-06-16T13:48:00Z,00000200,00000000,0000.87,0000.99,0000.43,0000.46,-000.09,0000.10,0000.14,-000.16,0000.54,18.4,24.5,03.5,02.5,0670.0,31.0
2021-06-16T13:49:00Z,00000200,00000000,0000.33,0000.76,0000.49,0000.40,-000.07,0000.07,0000.32,0000.40,-000.56,18.4,24.5,03.4,02.4,0670.0,31.0
2021-06-16T13:50:00Z,00000200,00000000,0001.14,0000.46,0000.49,-000.28,0000.00,0000.16,0000.50,0000.65,0000.71,18.4,24.5,03.6,02.5,0670.1,31.0
2021-06-16T13:51:00Z,00000200,00000000,0000.51,0000.73,0000.34,0000.11,0000.20,-000.06,-000.01,-000.20,0000.04,18.4,24.5,03.6,02.5,0670.1,31.0
2021-06-16T13:52:00Z,00000200,00000000,0001.38,0001.00,0000.68,0000.36,0000.10,0000.48,0000.40,0000.58,0000.26,18.4,24.5,03.7,02.5,0670.1,31.0
2021-06-16T13:53:00Z,00000200,00000000,0000.65,0000.64,0000.46,0000.09,0000.15,-000.19,-000.24,-000.39,-000.13,18.5,24.5,03.6,02.5,0670.1,31.0
2021-06-16T13:54:00Z,00000200,00000000,0001.04,0000.70,0000.21,0000.36,0000.14,0000.03,0000.48,0000.55,0000.18,18.5,24.5,03.6,02.5,0670.1,31.0
2021-06-16T13:55:00Z,00000200,00000000,0001.60,0000.46,0000.14,0000.45,-000.08,-000.18,-000.01,-000.19,0000.25,18.4,24.5,03.4,02.4,0670.0,31.0
2021-06-16T13:56:00Z,00000200,00000000,0000.56,0000.70,0000.67,0000.17,0000.14,0000.17,0000.45,0000.14,-000.15,18.4,24.5,03.4,02.4,0670.1,31.0
2021-06-16T13:57:00Z,00000200,40000000,,,,,,,-000.18,0000.20,0000.14,18.4,24.5,03.5,02.4,0670.1,31.0
2021-06-16T13:58:00Z,00000200,60000000,,,,,,,-000.03,-000.32,-000.09,18.4,24.5,03.4,02.3,0669.1,31.0
2021-06-16T13:59:00Z,00000200,20000000,,,,,,,-000.12,-000.11,-000.08,18.4,24.6,03.2,02.2,0669.1,31.0
